Regional Weather Roundup
Issued by NWS Midland/Odessa, TX

Home | Current Version | Previous Version | Text Only | Print | Product List | Glossary On
Versions: 1 2 3 4 5 6 7 8 9 10 11 12 13 14 15 16 17 18 19 20 21 22 23 24 25 26 27 28 29 30 31 32 33 34 35 36 37 38 39 40 41 42 43 44 45 46 47 48 49 50
000
ASUS44 KMAF 221810
RWRMAF
MIDLAND AREA WEATHER ROUNDUP
NATIONAL WEATHER SERVICE MIDLAND TX
100 PM CDT MON SEP 22 2014

...IN SOUTHWEST TEXAS AND SOUTHEAST NEW MEXICO...

CITY           SKY/WX    TMP DP  RH WIND       PRES   REMARKS
ALPINE         CLOUDY    71  59  65 SE12      30.35S
ANDREWS        CLOUDY    73  66  80 E8        30.28S
ARTESIA        NOT AVBL
BIG SPRING     MOSUNNY   79  68  68 NE6       30.27F
CARLSBAD       CLOUDY    72  72 100 S14       30.24F
DRYDEN           N/A     87  61  41 E15G25    30.19S
FORT STOCKTON  PTSUNNY   78  62  57 E16       30.23F
GUAD PASS      RAIN      60  50  69 E30G40    30.20F VSB 1/4
HOBBS          LGT RAIN  70  68  94 E12       30.30F
MARFA          CLOUDY    72  61  68 E16       30.32F
MIDLAND AIRPK  NOT AVBL
MIDLAND INTL   CLOUDY    78  66  66 E14       30.25F
ODESSA         LGT RAIN  75  67  76 SE9       30.25F
PECOS          CLOUDY    79  67  65 E14       30.21F
PRESIDIO       CLOUDY    81  63  52 NE7       30.17F
SEMINOLE       CLOUDY    71  66  85 E8        30.30F
SNYDER         PTSUNNY   73  67  82 E6        30.27F
WINK           CLOUDY    77  69  76 SE13      30.22F
$$
...OTHER STATIONS IN TEXAS...

CITY           SKY/WX    TMP DP  RH WIND       PRES   REMARKS
ABILENE        PTSUNNY   85  64  49 N8        30.23F
AMARILLO       SUNNY     70  52  52 SE20G26   30.33F
AUSTIN         PTSUNNY   89  68  49 N12       30.11F
BROWNSVILLE    LGT RAIN  83  76  79 NE12G22   30.01F
CORPUS CHRISTI PTSUNNY   88  70  55 NE14G23   30.06F
DALLAS FTW     MOSUNNY   84  51  31 NE12G18   30.19F
DEL RIO        SUNNY     85  64  49 SE7       30.14F
EL PASO        LGT RAIN  70  67  90 N6        30.22F
HOUSTON INT    MOSUNNY   90  68  48 VRB5      30.07F
LUBBOCK        PTSUNNY   72  61  68 SE13      30.31S
SAN ANGELO     MOSUNNY   84  64  50 E9G17     30.21F
SAN ANTONIO    PTSUNNY   89  65  44 E9        30.13F
WACO           PTSUNNY   85  68  56 N10G21    30.15F
WICHITA FALLS  NOT AVBL
$$
...OTHER LOCATIONS IN NEW MEXICO...

CITY           SKY/WX    TMP DP  RH WIND       PRES   REMARKS
ALAMAGORDO     NOT AVBL
ALBUQUERQUE    PTSUNNY   73  56  54 W6        30.32F
CANNON AFB     CLOUDY    63  62  97 SE10      30.33F FOG
CLOVIS           N/A     66  61  82 SE14      30.35F
HOLLOMAN AFB   NOT AVBL
ROSWELL        HVY RAIN  68  65  90 SE13      30.27F FOG
RUIDOSO        LGT RAIN  59  59 100 S10G16    30.43F
SANTA FE       CLOUDY    69  55  60 S14G21    30.37F
TRUTH OR CONSE CLOUDY    73  62  68 CALM      30.26F
TUCUMCARI      CLOUDY    68  61  78 SE10      30.31F
$$


USA.gov is the U.S. government's official web portal to all federal, state and local government web resources and services.